Time,TemperatureF,DewpointF,PressureIn,WindDirection,WindDirectionDegrees,WindSpeedMPH,WindSpeedGustMPH,Humidity,HourlyPrecipIn,Conditions,Clouds,dailyrainin,SoftwareType,DateUTC
2013-05-03 00:01:00,53.6,51.3,30.25,SE,146,0.0,0.0,92,0.00,CLR,,0.00,WeatherDisplay:10.37,2013-05-03 04:01:00,
2013-05-03 00:06:00,53.5,51.2,30.25,SE,146,0.0,0.0,92,0.00,CLR,,0.00,WeatherDisplay:10.37,2013-05-03 04:06:00,
2013-05-03 00:11:00,53.3,51.0,30.24,SSE,147,0.0,0.0,92,0.00,CLR,,0.00,WeatherDisplay:10.37,2013-05-03 04:11:00,
2013-05-03 00:16:00,53.3,51.0,30.24,SSE,147,0.0,0.0,92,0.00,CLR,,0.00,WeatherDisplay:10.37,2013-05-03 04:16:00,
2013-05-03 00:21:00,53.2,50.9,30.24,SE,146,0.0,0.0,92,0.00,CLR,,0.00,WeatherDisplay:10.37,2013-05-03 04:21:00,
2013-05-03 00:26:00,53.2,50.9,30.24,SSE,147,0.0,0.0,92,0.00,CLR,,0.00,WeatherDisplay:10.37,2013-05-03 04:26:00,
2013-05-03 00:31:00,53.2,50.9,30.24,SSE,147,0.0,0.0,92,0.00,CLR,,0.00,WeatherDisplay:10.37,2013-05-03 04:31:00,
2013-05-03 00:36:00,53.0,50.7,30.23,SSE,147,0.0,0.0,92,0.00,CLR,,0.00,WeatherDisplay:10.37,2013-05-03 04:36:00,
2013-05-03 00:41:00,52.9,50.6,30.23,SE,146,0.0,0.0,92,0.00,CLR,,0.00,WeatherDisplay:10.37,2013-05-03 04:41:00,
2013-05-03 00:46:00,52.8,50.5,30.23,SE,146,0.0,0.0,92,0.00,CLR,,0.00,WeatherDisplay:10.37,2013-05-03 04:46:00,
2013-05-03 00:51:00,52.7,50.4,30.23,SE,146,0.0,0.0,92,0.00,CLR,,0.00,WeatherDisplay:10.37,2013-05-03 04:51:00,
2013-05-03 00:56:00,52.6,50.6,30.23,SSE,147,0.0,0.0,93,0.00,CLR,,0.00,WeatherDisplay:10.37,2013-05-03 04:56:00,
2013-05-03 01:01:00,52.5,50.5,30.23,SE,146,0.0,0.0,93,0.00,CLR,,0.00,WeatherDisplay:10.37,2013-05-03 05:01:00,
2013-05-03 01:06:00,52.4,50.4,30.23,SE,146,0.0,0.0,93,0.00,CLR,,0.00,WeatherDisplay:10.37,2013-05-03 05:06:00,
2013-05-03 01:11:00,52.3,50.3,30.23,SSE,147,0.0,0.0,93,0.00,CLR,,0.00,WeatherDisplay:10.37,2013-05-03 05:11:00,
2013-05-03 01:16:00,52.2,50.2,30.23,SSE,149,0.0,0.0,93,0.00,CLR,,0.00,WeatherDisplay:10.37,2013-05-03 05:16:00,
2013-05-03 01:21:00,52.1,50.1,30.23,SSE,148,0.0,0.0,93,0.00,CLR,,0.00,WeatherDisplay:10.37,2013-05-03 05:21:00,
2013-05-03 01:26:00,52.0,50.0,30.23,SSE,148,0.0,0.0,93,0.00,CLR,,0.00,WeatherDisplay:10.37,2013-05-03 05:26:00,
2013-05-03 01:31:00,51.9,49.9,30.23,SSE,148,0.0,0.0,93,0.00,CLR,,0.00,WeatherDisplay:10.37,2013-05-03 05:31:00,
2013-05-03 01:36:00,51.6,49.6,30.22,SSE,148,0.0,0.0,93,0.00,CLR,,0.00,WeatherDisplay:10.37,2013-05-03 05:36:00,
2013-05-03 01:41:00,51.4,49.7,30.22,SSE,150,0.0,0.0,94,0.00,CLR,,0.00,WeatherDisplay:10.37,2013-05-03 05:41:00,
2013-05-03 01:46:00,51.2,49.5,30.22,SSE,150,0.0,0.0,94,0.00,CLR,,0.00,WeatherDisplay:10.37,2013-05-03 05:46:00,
2013-05-03 01:51:00,51.0,49.3,30.22,SSE,149,0.0,0.0,94,0.00,CLR,,0.00,WeatherDisplay:10.37,2013-05-03 05:51:00,
2013-05-03 01:56:00,50.8,49.4,30.22,SSE,149,0.0,0.0,95,0.00,CLR,,0.00,WeatherDisplay:10.37,2013-05-03 05:56:00,
2013-05-03 02:01:00,50.6,49.2,30.22,SSE,150,0.0,0.0,95,0.00,CLR,,0.00,WeatherDisplay:10.37,2013-05-03 06:01:00,
2013-05-03 02:06:00,50.4,49.0,30.22,SSE,150,0.0,0.0,95,0.00,CLR,,0.00,WeatherDisplay:10.37,2013-05-03 06:06:00,
2013-05-03 02:11:00,50.4,49.0,30.21,SSE,150,0.0,0.0,95,0.00,CLR,,0.00,WeatherDisplay:10.37,2013-05-03 06:11:00,
2013-05-03 02:16:00,50.1,48.7,30.21,SSE,150,0.0,0.0,95,0.00,CLR,,0.00,WeatherDisplay:10.37,2013-05-03 06:16:00,
2013-05-03 02:21:00,50.0,48.6,30.21,SSE,150,0.0,0.0,95,0.00,CLR,,0.00,WeatherDisplay:10.37,2013-05-03 06:21:00,
2013-05-03 02:26:00,49.9,48.8,30.21,SSE,150,0.0,0.0,96,0.00,CLR,,0.00,WeatherDisplay:10.37,2013-05-03 06:26:00,
2013-05-03 02:31:00,49.8,48.7,30.21,SSE,149,0.0,0.0,96,0.00,CLR,,0.00,WeatherDisplay:10.37,2013-05-03 06:31:00,
2013-05-03 02:36:00,49.7,48.6,30.21,SSE,149,0.0,0.0,96,0.00,CLR,,0.00,WeatherDisplay:10.37,2013-05-03 06:36:00,
2013-05-03 02:41:00,49.8,48.7,30.20,SSE,148,0.0,0.0,96,0.00,CLR,,0.00,WeatherDisplay:10.37,2013-05-03 06:41:00,
2013-05-03 02:46:00,49.8,48.7,30.21,SSE,148,0.0,0.0,96,0.00,CLR,,0.00,WeatherDisplay:10.37,2013-05-03 06:46:00,
2013-05-03 02:51:00,49.8,48.7,30.21,SSE,148,0.0,0.0,96,0.00,CLR,,0.00,WeatherDisplay:10.37,2013-05-03 06:51:00,
2013-05-03 02:56:00,49.7,48.6,30.20,SSE,148,0.0,0.0,96,0.00,CLR,,0.00,WeatherDisplay:10.37,2013-05-03 06:56:00,
2013-05-03 03:01:00,49.7,48.6,30.20,SSE,148,0.0,0.0,96,0.00,CLR,,0.00,WeatherDisplay:10.37,2013-05-03 07:01:00,
2013-05-03 03:06:00,49.7,48.6,30.20,SE,146,0.0,0.0,96,0.00,CLR,,0.00,WeatherDisplay:10.37,2013-05-03 07:06:00,
2013-05-03 03:11:00,49.7,48.6,30.20,SSE,149,0.0,0.0,96,0.00,CLR,,0.00,WeatherDisplay:10.37,2013-05-03 07:11:00,
2013-05-03 03:16:00,49.6,48.5,30.20,SSE,148,0.0,0.0,96,0.00,CLR,,0.00,WeatherDisplay:10.37,2013-05-03 07:16:00,
2013-05-03 03:21:00,49.6,48.5,30.20,SSE,148,0.0,0.0,96,0.00,CLR,,0.00,WeatherDisplay:10.37,2013-05-03 07:21:00,
2013-05-03 03:26:00,49.6,48.5,30.20,SSE,148,0.0,0.0,96,0.00,CLR,,0.00,WeatherDisplay:10.37,2013-05-03 07:26:00,
2013-05-03 03:31:00,49.5,48.4,30.20,SSE,148,0.0,0.0,96,0.00,CLR,,0.00,WeatherDisplay:10.37,2013-05-03 07:31:00,
2013-05-03 03:36:00,49.6,48.5,30.20,SSE,148,0.0,0.0,96,0.00,CLR,,0.00,WeatherDisplay:10.37,2013-05-03 07:36:00,
2013-05-03 03:41:00,49.5,48.4,30.20,SSE,148,0.0,0.0,96,0.00,CLR,,0.00,WeatherDisplay:10.37,2013-05-03 07:41:00,
2013-05-03 03:46:00,49.5,48.4,30.20,SSE,148,0.0,0.0,96,0.00,CLR,,0.00,WeatherDisplay:10.37,2013-05-03 07:46:00,
2013-05-03 03:51:00,49.4,48.3,30.20,SSE,148,0.0,0.0,96,0.00,CLR,,0.00,WeatherDisplay:10.37,2013-05-03 07:51:00,
2013-05-03 03:56:00,49.4,48.3,30.20,SSE,148,0.0,0.0,96,0.00,CLR,,0.00,WeatherDisplay:10.37,2013-05-03 07:56:00,
2013-05-03 04:01:00,49.3,48.2,30.20,SSE,148,0.0,0.0,96,0.00,CLR,,0.00,WeatherDisplay:10.37,2013-05-03 08:01:00,
2013-05-03 04:06:00,49.2,48.1,30.20,SSE,150,0.0,0.0,96,0.00,CLR,,0.00,WeatherDisplay:10.37,2013-05-03 08:06:00,
2013-05-03 04:11:00,49.2,48.1,30.20,SSE,148,0.0,0.0,96,0.00,CLR,,0.00,WeatherDisplay:10.37,2013-05-03 08:11:00,
2013-05-03 04:16:00,49.2,48.1,30.19,SSE,148,0.0,0.0,96,0.00,CLR,,0.00,WeatherDisplay:10.37,2013-05-03 08:16:00,
2013-05-03 04:21:00,49.2,48.1,30.19,SSE,148,0.0,0.0,96,0.00,CLR,,0.00,WeatherDisplay:10.37,2013-05-03 08:21:00,
2013-05-03 04:26:00,49.2,48.1,30.19,SSE,148,0.0,0.0,96,0.00,CLR,,0.00,WeatherDisplay:10.37,2013-05-03 08:26:00,
2013-05-03 04:31:00,49.1,48.0,30.20,SSE,148,0.0,0.0,96,0.00,CLR,,0.00,WeatherDisplay:10.37,2013-05-03 08:31:00,
2013-05-03 04:36:00,49.1,48.0,30.20,SE,141,0.0,0.0,96,0.00,CLR,,0.00,WeatherDisplay:10.37,2013-05-03 08:36:00,
2013-05-03 04:41:00,49.2,48.1,30.20,SE,141,0.0,0.0,96,0.00,CLR,,0.00,WeatherDisplay:10.37,2013-05-03 08:41:00,
2013-05-03 04:46:00,49.1,48.0,30.20,SE,141,0.0,0.0,96,0.00,CLR,,0.00,WeatherDisplay:10.37,2013-05-03 08:46:00,
2013-05-03 04:51:00,49.1,48.0,30.20,SE,141,0.0,0.0,96,0.00,CLR,,0.00,WeatherDisplay:10.37,2013-05-03 08:51:00,
2013-05-03 04:56:00,49.0,47.9,30.20,SE,141,0.0,0.0,96,0.00,CLR,,0.00,WeatherDisplay:10.37,2013-05-03 08:56:00,
2013-05-03 05:01:00,48.9,47.8,30.20,SE,141,0.0,0.0,96,0.00,CLR,,0.00,WeatherDisplay:10.37,2013-05-03 09:01:00,
2013-05-03 05:06:00,48.9,47.8,30.20,SE,141,0.0,0.0,96,0.00,CLR,,0.00,WeatherDisplay:10.37,2013-05-03 09:06:00,
2013-05-03 05:11:00,48.9,47.8,30.20,SE,141,0.0,0.0,96,0.00,CLR,,0.00,WeatherDisplay:10.37,2013-05-03 09:11:00,
2013-05-03 05:16:00,48.8,47.7,30.20,SE,141,0.0,0.0,96,0.00,CLR,,0.00,WeatherDisplay:10.37,2013-05-03 09:16:00,
2013-05-03 05:21:00,48.8,47.7,30.20,SE,133,0.0,0.0,96,0.00,CLR,,0.00,WeatherDisplay:10.37,2013-05-03 09:21:00,
2013-05-03 05:26:00,48.8,47.7,30.20,SE,133,0.0,0.0,96,0.00,CLR,,0.00,WeatherDisplay:10.37,2013-05-03 09:26:00,
2013-05-03 05:31:00,48.7,47.6,30.20,SE,133,0.0,0.0,96,0.00,CLR,,0.00,WeatherDisplay:10.37,2013-05-03 09:31:00,
2013-05-03 05:36:00,48.7,47.6,30.20,SE,133,0.0,0.0,96,0.00,CLR,,0.00,WeatherDisplay:10.37,2013-05-03 09:36:00,
2013-05-03 05:41:00,48.7,47.6,30.20,SE,132,0.0,0.0,96,0.00,CLR,,0.00,WeatherDisplay:10.37,2013-05-03 09:41:00,
2013-05-03 05:46:00,48.5,47.4,30.20,SE,133,0.0,0.0,96,0.00,CLR,,0.00,WeatherDisplay:10.37,2013-05-03 09:46:00,
2013-05-03 05:51:00,48.5,47.4,30.20,SE,132,0.0,0.0,96,0.00,CLR,,0.00,WeatherDisplay:10.37,2013-05-03 09:51:00,
2013-05-03 05:56:00,48.4,47.3,30.20,SE,132,0.0,0.0,96,0.00,CLR,,0.00,WeatherDisplay:10.37,2013-05-03 09:56:00,
2013-05-03 06:01:00,48.3,47.2,30.20,SE,133,0.0,0.0,96,0.00,CLR,,0.00,WeatherDisplay:10.37,2013-05-03 10:01:00,
2013-05-03 06:06:00,48.1,47.0,30.20,SE,132,0.0,0.0,96,0.00,CLR,,0.00,WeatherDisplay:10.37,2013-05-03 10:06:00,
2013-05-03 06:11:00,48.0,46.9,30.21,SE,133,0.0,0.0,96,0.00,CLR,,0.00,WeatherDisplay:10.37,2013-05-03 10:11:00,
2013-05-03 06:16:00,47.9,46.8,30.21,SE,132,0.0,0.0,96,0.00,CLR,,0.00,WeatherDisplay:10.37,2013-05-03 10:16:00,
2013-05-03 06:21:00,48.0,47.2,30.21,SE,132,0.0,0.0,97,0.00,CLR,,0.00,WeatherDisplay:10.37,2013-05-03 10:21:00,
2013-05-03 06:26:00,48.0,47.2,30.21,SE,133,0.0,0.0,97,0.00,CLR,,0.00,WeatherDisplay:10.37,2013-05-03 10:26:00,
2013-05-03 06:31:00,48.0,47.2,30.21,SE,133,0.0,0.0,97,0.00,CLR,,0.00,WeatherDisplay:10.37,2013-05-03 10:31:00,
2013-05-03 06:36:00,48.1,47.3,30.21,SE,133,0.0,0.0,97,0.00,CLR,,0.00,WeatherDisplay:10.37,2013-05-03 10:36:00,
2013-05-03 06:41:00,48.1,47.3,30.21,SE,132,0.0,0.0,97,0.00,CLR,,0.00,WeatherDisplay:10.37,2013-05-03 10:41:00,
2013-05-03 06:46:00,48.1,47.3,30.21,SE,132,0.0,0.0,97,0.00,CLR,,0.00,WeatherDisplay:10.37,2013-05-03 10:46:00,
2013-05-03 06:51:00,48.2,47.4,30.21,SE,133,0.0,0.0,97,0.00,CLR,,0.00,WeatherDisplay:10.37,2013-05-03 10:51:00,
2013-05-03 06:56:00,48.3,47.5,30.22,SE,132,0.0,0.0,97,0.00,CLR,,0.00,WeatherDisplay:10.37,2013-05-03 10:56:00,
2013-05-03 07:01:00,48.4,47.6,30.22,NE,41,0.0,0.0,97,0.00,CLR,,0.00,WeatherDisplay:10.37,2013-05-03 11:01:00,
2013-05-03 07:06:00,48.5,47.7,30.22,NE,41,0.0,0.0,97,0.00,CLR,,0.00,WeatherDisplay:10.37,2013-05-03 11:06:00,
2013-05-03 07:11:00,48.6,47.8,30.22,NNE,19,0.0,0.0,97,0.00,CLR,,0.00,WeatherDisplay:10.37,2013-05-03 11:11:00,
2013-05-03 07:16:00,48.8,48.0,30.22,NNE,30,0.0,0.0,97,0.00,CLR,,0.00,WeatherDisplay:10.37,2013-05-03 11:16:00,
2013-05-03 07:21:00,48.9,48.1,30.22,NNE,33,0.0,0.0,97,0.00,CLR,,0.00,WeatherDisplay:10.37,2013-05-03 11:21:00,
2013-05-03 07:26:00,49.1,48.3,30.23,NE,39,0.0,0.0,97,0.00,CLR,,0.00,WeatherDisplay:10.37,2013-05-03 11:26:00,
2013-05-03 07:31:00,49.2,48.4,30.23,NNE,23,0.0,0.0,97,0.00,CLR,,0.00,WeatherDisplay:10.37,2013-05-03 11:31:00,
2013-05-03 07:36:00,49.3,48.2,30.23,NNE,32,1.1,0.0,96,0.00,CLR,,0.00,WeatherDisplay:10.37,2013-05-03 11:36:00,
2013-05-03 07:41:00,49.5,48.4,30.23,NNE,16,2.3,2.3,96,0.00,CLR,,0.00,WeatherDisplay:10.37,2013-05-03 11:41:00,
2013-05-03 07:46:00,49.6,48.5,30.23,NNE,22,1.1,0.0,96,0.00,CLR,,0.00,WeatherDisplay:10.37,2013-05-03 11:46:00,
2013-05-03 07:51:00,49.9,48.8,30.23,NNE,26,1.1,1.1,96,0.00,CLR,,0.00,WeatherDisplay:10.37,2013-05-03 11:51:00,
2013-05-03 07:56:00,50.2,48.8,30.23,NNE,33,2.3,2.3,95,0.00,CLR,,0.00,WeatherDisplay:10.37,2013-05-03 11:56:00,
2013-05-03 08:01:00,50.4,49.0,30.23,NNE,16,1.1,0.0,95,0.00,CLR,,0.00,WeatherDisplay:10.37,2013-05-03 12:01:00,
2013-05-03 08:06:00,50.7,49.3,30.23,NNE,20,2.3,2.3,95,0.00,CLR,,0.00,WeatherDisplay:10.37,2013-05-03 12:06:00,
2013-05-03 08:11:00,51.1,49.7,30.23,NNE,21,2.3,2.3,95,0.00,CLR,,0.00,WeatherDisplay:10.37,2013-05-03 12:11:00,
2013-05-03 08:16:00,51.6,49.9,30.23,NNE,15,0.0,0.0,94,0.00,CLR,,0.00,WeatherDisplay:10.37,2013-05-03 12:16:00,
2013-05-03 08:21:00,52.2,50.2,30.23,NNW,348,0.0,0.3,93,0.00,CLR,,0.00,WeatherDisplay:10.37,2013-05-03 12:21:00,
2013-05-03 08:26:00,52.7,50.4,30.23,ENE,60,2.3,2.3,92,0.00,CLR,,0.00,WeatherDisplay:10.37,2013-05-03 12:26:00,
2013-05-03 08:31:00,53.7,51.4,30.23,ENE,63,0.0,0.0,92,0.00,CLR,,0.00,WeatherDisplay:10.37,2013-05-03 12:31:00,
2013-05-03 08:36:00,54.1,50.9,30.23,East,98,3.5,3.5,89,0.00,CLR,,0.00,WeatherDisplay:10.37,2013-05-03 12:36:00,
2013-05-03 08:41:00,54.3,51.1,30.23,NNE,16,1.1,1.1,89,0.00,CLR,,0.00,WeatherDisplay:10.37,2013-05-03 12:41:00,
2013-05-03 08:46:00,54.4,51.2,30.23,North,4,2.3,2.3,89,0.00,CLR,,0.00,WeatherDisplay:10.37,2013-05-03 12:46:00,
2013-05-03 08:51:00,54.3,51.1,30.23,NNW,330,1.1,0.0,89,0.00,CLR,,0.00,WeatherDisplay:10.37,2013-05-03 12:51:00,
2013-05-03 08:56:00,54.6,51.1,30.23,North,6,3.5,3.5,88,0.00,CLR,,0.00,WeatherDisplay:10.37,2013-05-03 12:56:00,
2013-05-03 09:01:00,55.1,51.9,30.23,SE,138,3.5,3.5,89,0.00,CLR,,0.00,WeatherDisplay:10.37,2013-05-03 13:01:00,
2013-05-03 09:06:00,55.6,52.1,30.23,NNE,16,1.1,0.0,88,0.00,CLR,,0.00,WeatherDisplay:10.37,2013-05-03 13:06:00,
2013-05-03 09:11:00,56.1,52.3,30.23,NW,304,3.5,3.5,87,0.00,CLR,,0.00,WeatherDisplay:10.37,2013-05-03 13:11:00,
2013-05-03 09:16:00,56.3,52.5,30.23,North,9,4.6,4.6,87,0.00,CLR,,0.00,WeatherDisplay:10.37,2013-05-03 13:16:00,
2013-05-03 09:21:00,56.8,53.3,30.23,NNE,16,1.1,1.1,88,0.00,CLR,,0.00,WeatherDisplay:10.37,2013-05-03 13:21:00,
2013-05-03 09:26:00,56.9,52.4,30.24,ENE,67,3.5,3.5,85,0.00,CLR,,0.00,WeatherDisplay:10.37,2013-05-03 13:26:00,
2013-05-03 09:31:00,56.8,52.7,30.24,NNE,26,3.5,3.5,86,0.00,CLR,,0.00,WeatherDisplay:10.37,2013-05-03 13:31:00,
2013-05-03 09:36:00,56.7,52.6,30.24,NNE,33,4.0,4.0,86,0.00,CLR,,0.00,WeatherDisplay:10.37,2013-05-03 13:36:00,
2013-05-03 09:41:00,56.7,52.9,30.24,NNE,33,1.1,1.1,87,0.00,CLR,,0.00,WeatherDisplay:10.37,2013-05-03 13:41:00,
2013-05-03 09:46:00,57.2,53.4,30.24,NE,39,2.3,2.3,87,0.00,CLR,,0.00,WeatherDisplay:10.37,2013-05-03 13:46:00,
2013-05-03 09:51:00,58.0,53.5,30.24,North,6,3.5,3.5,85,0.00,CLR,,0.00,WeatherDisplay:10.37,2013-05-03 13:51:00,
2013-05-03 09:53:00,58.2,53.4,30.24,North,4,3.0,3.0,84,0.00,CLR,,0.00,WeatherDisplay:10.37,2013-05-03 13:53:00,
2013-05-03 09:58:00,58.6,53.8,30.24,NNE,31,3.0,3.0,84,0.00,CLR,,0.00,WeatherDisplay:10.37,2013-05-03 13:58:00,
2013-05-03 10:03:00,58.8,54.0,30.24,North,8,1.1,1.2,84,0.00,CLR,,0.00,WeatherDisplay:10.37,2013-05-03 14:03:00,
2013-05-03 10:08:00,58.9,53.4,30.24,NNE,33,3.5,3.5,82,0.00,CLR,,0.00,WeatherDisplay:10.37,2013-05-03 14:08:00,
2013-05-03 10:13:00,59.0,53.5,30.24,NNW,342,2.3,0.0,82,0.00,CLR,,0.00,WeatherDisplay:10.37,2013-05-03 14:13:00,
2013-05-03 10:18:00,58.9,53.1,30.25,North,1,4.6,4.6,81,0.00,CLR,,0.00,WeatherDisplay:10.37,2013-05-03 14:18:00,
2013-05-03 10:23:00,58.7,53.2,30.25,NNE,31,3.5,3.5,82,0.00,CLR,,0.00,WeatherDisplay:10.37,2013-05-03 14:23:00,
2013-05-03 10:28:00,59.0,53.8,30.25,ESE,107,5.8,5.8,83,0.00,CLR,,0.00,WeatherDisplay:10.37,2013-05-03 14:28:00,
2013-05-03 10:33:00,59.0,53.8,30.25,NNE,15,2.3,2.3,83,0.00,CLR,,0.00,WeatherDisplay:10.37,2013-05-03 14:33:00,
2013-05-03 10:38:00,59.0,53.8,30.25,NE,49,3.5,3.5,83,0.00,CLR,,0.00,WeatherDisplay:10.37,2013-05-03 14:38:00,
2013-05-03 10:43:00,59.1,53.6,30.25,NNE,26,3.0,3.0,82,0.00,CLR,,0.00,WeatherDisplay:10.37,2013-05-03 14:43:00,
2013-05-03 10:48:00,59.0,53.5,30.25,NNE,23,3.5,3.5,82,0.00,CLR,,0.00,WeatherDisplay:10.37,2013-05-03 14:48:00,
2013-05-03 10:53:00,59.2,53.4,30.25,NE,51,6.9,6.9,81,0.00,CLR,,0.00,WeatherDisplay:10.37,2013-05-03 14:53:00,
2013-05-03 10:58:00,59.5,54.0,30.25,ENE,74,3.5,3.5,82,0.00,CLR,,0.00,WeatherDisplay:10.37,2013-05-03 14:58:00,
2013-05-03 11:03:00,60.0,54.5,30.25,West,259,1.1,1.1,82,0.00,CLR,,0.00,WeatherDisplay:10.37,2013-05-03 15:03:00,
2013-05-03 11:08:00,60.4,54.2,30.25,ENE,77,2.3,2.3,80,0.00,CLR,,0.00,WeatherDisplay:10.37,2013-05-03 15:08:00,
2013-05-03 11:13:00,60.9,54.7,30.25,NE,44,0.0,0.0,80,0.00,CLR,,0.00,WeatherDisplay:10.37,2013-05-03 15:13:00,
2013-05-03 11:18:00,61.2,54.3,30.25,NNE,18,1.1,1.3,78,0.00,CLR,,0.00,WeatherDisplay:10.37,2013-05-03 15:18:00,
2013-05-03 11:23:00,61.5,54.2,30.25,North,8,3.5,3.5,77,0.00,CLR,,0.00,WeatherDisplay:10.37,2013-05-03 15:23:00,
2013-05-03 11:28:00,61.7,54.4,30.25,SSW,212,3.5,0.0,77,0.00,CLR,,0.00,WeatherDisplay:10.37,2013-05-03 15:28:00,
2013-05-03 11:33:00,61.8,54.5,30.25,NNE,13,2.3,0.0,77,0.00,CLR,,0.00,WeatherDisplay:10.37,2013-05-03 15:33:00,
2013-05-03 11:38:00,62.2,54.9,30.25,NNE,33,3.0,3.0,77,0.00,CLR,,0.00,WeatherDisplay:10.37,2013-05-03 15:38:00,
2013-05-03 11:43:00,62.6,54.9,30.24,North,354,0.0,0.0,76,0.00,CLR,,0.00,WeatherDisplay:10.37,2013-05-03 15:43:00,
2013-05-03 11:48:00,62.7,55.0,30.25,SW,221,3.5,3.5,76,0.00,CLR,,0.00,WeatherDisplay:10.37,2013-05-03 15:48:00,
2013-05-03 11:54:00,63.7,56.0,30.24,NNE,23,3.5,3.5,76,0.00,CLR,,0.00,WeatherDisplay:10.37,2013-05-03 15:54:00,
2013-05-03 11:59:00,64.5,55.7,30.24,NNE,20,1.0,1.0,73,0.00,CLR,,0.00,WeatherDisplay:10.37,2013-05-03 15:59:00,
2013-05-03 12:04:00,65.0,55.4,30.24,South,184,3.5,3.5,71,0.00,CLR,,0.00,WeatherDisplay:10.37,2013-05-03 16:04:00,
2013-05-03 12:09:00,65.6,55.5,30.24,NNE,13,3.0,3.0,70,0.00,CLR,,0.00,WeatherDisplay:10.37,2013-05-03 16:09:00,
2013-05-03 12:14:00,65.5,55.8,30.24,NNE,21,3.0,3.0,71,0.00,CLR,,0.00,WeatherDisplay:10.37,2013-05-03 16:14:00,
2013-05-03 12:19:00,65.8,54.9,30.24,North,8,2.3,2.3,68,0.00,CLR,,0.00,WeatherDisplay:10.37,2013-05-03 16:19:00,
2013-05-03 12:24:00,65.5,54.7,30.24,NNE,14,4.6,4.6,68,0.00,CLR,,0.00,WeatherDisplay:10.37,2013-05-03 16:24:00,
2013-05-03 12:29:00,65.4,55.0,30.23,NNE,25,2.0,2.0,69,0.00,CLR,,0.00,WeatherDisplay:10.37,2013-05-03 16:29:00,
2013-05-03 12:34:00,65.7,55.6,30.23,ESE,111,2.0,2.0,70,0.00,CLR,,0.00,WeatherDisplay:10.37,2013-05-03 16:34:00,
2013-05-03 12:39:00,66.1,54.4,30.23,NE,40,2.3,2.3,66,0.00,CLR,,0.00,WeatherDisplay:10.37,2013-05-03 16:39:00,
2013-05-03 12:44:00,66.3,54.6,30.23,NNW,340,4.6,4.6,66,0.00,CLR,,0.00,WeatherDisplay:10.37,2013-05-03 16:44:00,
2013-05-03 12:49:00,65.8,54.1,30.23,NNE,27,4.6,4.6,66,0.00,CLR,,0.00,WeatherDisplay:10.37,2013-05-03 16:49:00,
2013-05-03 12:54:00,65.7,55.2,30.22,East,84,1.1,1.4,69,0.00,CLR,,0.00,WeatherDisplay:10.37,2013-05-03 16:54:00,
2013-05-03 12:59:00,65.8,54.9,30.22,ENE,77,1.1,1.1,68,0.00,CLR,,0.00,WeatherDisplay:10.37,2013-05-03 16:59:00,
2013-05-03 13:04:00,66.3,55.0,30.22,North,354,3.5,3.5,67,0.00,CLR,,0.00,WeatherDisplay:10.37,2013-05-03 17:04:00,
2013-05-03 13:09:00,66.7,54.6,30.22,NNE,18,3.5,3.5,65,0.00,CLR,,0.00,WeatherDisplay:10.37,2013-05-03 17:09:00,
2013-05-03 13:14:00,67.2,54.6,30.22,ENE,78,3.5,3.5,64,0.00,CLR,,0.00,WeatherDisplay:10.37,2013-05-03 17:14:00,
2013-05-03 13:19:00,67.5,55.7,30.21,ENE,64,2.3,2.3,66,0.00,CLR,,0.00,WeatherDisplay:10.37,2013-05-03 17:19:00,
2013-05-03 13:24:00,68.5,56.7,30.21,ENE,67,1.1,1.1,66,0.00,CLR,,0.00,WeatherDisplay:10.37,2013-05-03 17:24:00,
2013-05-03 13:29:00,68.3,55.6,30.21,SW,219,2.3,2.3,64,0.00,CLR,,0.00,WeatherDisplay:10.37,2013-05-03 17:29:00,
2013-05-03 13:34:00,68.9,56.6,30.21,South,188,5.8,5.8,65,0.00,CLR,,0.00,WeatherDisplay:10.37,2013-05-03 17:34:00,
2013-05-03 13:39:00,69.7,57.0,30.20,NE,49,4.6,4.6,64,0.00,CLR,,0.00,WeatherDisplay:10.37,2013-05-03 17:39:00,
2013-05-03 13:44:00,69.4,55.4,30.20,NNE,15,1.1,1.1,61,0.00,CLR,,0.00,WeatherDisplay:10.37,2013-05-03 17:44:00,
2013-05-03 13:49:00,68.9,55.3,30.20,North,9,3.5,3.5,62,0.00,CLR,,0.00,WeatherDisplay:10.37,2013-05-03 17:49:00,
2013-05-03 13:54:00,68.0,54.5,30.20,NNE,27,8.1,8.1,62,0.00,CLR,,0.00,WeatherDisplay:10.37,2013-05-03 17:54:00,
2013-05-03 13:59:00,67.7,54.6,30.20,ENE,64,2.3,2.3,63,0.00,CLR,,0.00,WeatherDisplay:10.37,2013-05-03 17:59:00,
2013-05-03 14:04:00,67.5,54.5,30.20,NNE,23,3.5,3.5,63,0.00,CLR,,0.00,WeatherDisplay:10.37,2013-05-03 18:04:00,
2013-05-03 14:09:00,67.7,54.6,30.20,East,82,4.6,4.6,63,0.00,CLR,,0.00,WeatherDisplay:10.37,2013-05-03 18:09:00,
2013-05-03 14:14:00,68.3,55.6,30.19,East,98,2.3,2.3,64,0.00,CLR,,0.00,WeatherDisplay:10.37,2013-05-03 18:14:00,
2013-05-03 14:19:00,68.2,55.1,30.19,NNE,25,3.5,3.5,63,0.00,CLR,,0.00,WeatherDisplay:10.37,2013-05-03 18:19:00,
2013-05-03 14:24:00,68.0,54.9,30.19,North,360,2.3,2.3,63,0.00,CLR,,0.00,WeatherDisplay:10.37,2013-05-03 18:24:00,
2013-05-03 14:29:00,68.2,54.7,30.19,North,349,3.5,3.5,62,0.00,CLR,,0.00,WeatherDisplay:10.37,2013-05-03 18:29:00,
2013-05-03 14:34:00,68.1,55.0,30.19,NNE,14,4.6,4.6,63,0.00,CLR,,0.00,WeatherDisplay:10.37,2013-05-03 18:34:00,
2013-05-03 14:39:00,68.0,54.9,30.19,North,4,2.3,2.3,63,0.00,CLR,,0.00,WeatherDisplay:10.37,2013-05-03 18:39:00,
2013-05-03 14:44:00,68.4,56.6,30.18,East,98,1.1,0.0,66,0.00,CLR,,0.00,WeatherDisplay:10.37,2013-05-03 18:44:00,
2013-05-03 14:49:00,68.9,54.9,30.18,East,79,4.6,4.6,61,0.00,CLR,,0.00,WeatherDisplay:10.37,2013-05-03 18:49:00,
2013-05-03 14:54:00,68.6,55.5,30.18,East,82,1.1,1.1,63,0.00,CLR,,0.00,WeatherDisplay:10.37,2013-05-03 18:54:00,
2013-05-03 14:59:00,68.3,55.2,30.18,NNE,33,3.5,3.5,63,0.00,CLR,,0.00,WeatherDisplay:10.37,2013-05-03 18:59:00,
2013-05-03 15:04:00,68.0,54.5,30.18,North,8,5.0,5.0,62,0.00,CLR,,0.00,WeatherDisplay:10.37,2013-05-03 19:04:00,
2013-05-03 15:09:00,68.3,55.6,30.18,NNE,20,3.5,3.5,64,0.00,CLR,,0.00,WeatherDisplay:10.37,2013-05-03 19:09:00,
2013-05-03 15:14:00,68.7,54.7,30.17,NE,54,3.5,3.5,61,0.00,CLR,,0.00,WeatherDisplay:10.37,2013-05-03 19:14:00,
2013-05-03 15:19:00,68.6,54.6,30.17,ENE,72,0.0,0.0,61,0.00,CLR,,0.00,WeatherDisplay:10.37,2013-05-03 19:19:00,
2013-05-03 15:24:00,68.8,55.2,30.17,NNE,19,2.3,2.3,62,0.00,CLR,,0.00,WeatherDisplay:10.37,2013-05-03 19:24:00,
2013-05-03 15:29:00,69.0,55.0,30.17,SE,124,2.3,2.3,61,0.00,CLR,,0.00,WeatherDisplay:10.37,2013-05-03 19:29:00,
2013-05-03 15:34:00,69.2,54.3,30.17,NNE,15,5.8,5.8,59,0.00,CLR,,0.00,WeatherDisplay:10.37,2013-05-03 19:34:00,
2013-05-03 15:39:00,68.5,54.5,30.16,ENE,70,3.5,3.5,61,0.00,CLR,,0.00,WeatherDisplay:10.37,2013-05-03 19:39:00,
2013-05-03 15:44:00,68.8,53.9,30.16,NW,323,1.1,0.0,59,0.00,CLR,,0.00,WeatherDisplay:10.37,2013-05-03 19:44:00,
2013-05-03 15:49:00,69.5,55.5,30.16,NNE,29,3.5,3.5,61,0.00,CLR,,0.00,WeatherDisplay:10.37,2013-05-03 19:49:00,
2013-05-03 15:54:00,69.8,54.4,30.16,NNE,33,3.5,3.5,58,0.00,CLR,,0.00,WeatherDisplay:10.37,2013-05-03 19:54:00,
2013-05-03 15:59:00,69.9,54.9,30.16,ENE,77,2.3,2.3,59,0.00,CLR,,0.00,WeatherDisplay:10.37,2013-05-03 19:59:00,
2013-05-03 16:04:00,70.2,53.3,30.15,SSE,150,3.5,3.5,55,0.00,CLR,,0.00,WeatherDisplay:10.37,2013-05-03 20:04:00,
2013-05-03 16:09:00,69.7,53.3,30.15,NW,316,5.8,5.8,56,0.00,CLR,,0.00,WeatherDisplay:10.37,2013-05-03 20:09:00,
2013-05-03 16:14:00,69.2,53.3,30.15,NNE,28,1.1,1.1,57,0.00,CLR,,0.00,WeatherDisplay:10.37,2013-05-03 20:14:00,
2013-05-03 16:19:00,68.8,53.4,30.15,North,11,3.5,3.5,58,0.00,CLR,,0.00,WeatherDisplay:10.37,2013-05-03 20:19:00,
2013-05-03 16:24:00,68.2,53.3,30.15,NNE,16,3.0,3.0,59,0.00,CLR,,0.00,WeatherDisplay:10.37,2013-05-03 20:24:00,
2013-05-03 16:29:00,68.3,53.4,30.15,North,6,2.3,2.3,59,0.00,CLR,,0.00,WeatherDisplay:10.37,2013-05-03 20:29:00,
2013-05-03 16:34:00,68.3,53.4,30.15,North,358,3.5,3.5,59,0.00,CLR,,0.00,WeatherDisplay:10.37,2013-05-03 20:34:00,
2013-05-03 16:39:00,68.5,53.6,30.15,NNE,16,2.3,2.3,59,0.00,CLR,,0.00,WeatherDisplay:10.37,2013-05-03 20:39:00,
2013-05-03 16:44:00,68.5,53.6,30.15,NNW,347,2.3,2.3,59,0.00,CLR,,0.00,WeatherDisplay:10.37,2013-05-03 20:44:00,
2013-05-03 16:49:00,68.6,53.7,30.15,NNE,12,2.3,2.3,59,0.00,CLR,,0.00,WeatherDisplay:10.37,2013-05-03 20:49:00,
2013-05-03 16:54:00,68.4,54.4,30.15,NNW,347,4.6,4.6,61,0.00,CLR,,0.00,WeatherDisplay:10.37,2013-05-03 20:54:00,
2013-05-03 16:59:00,68.1,53.7,30.15,North,8,3.5,3.5,60,0.00,CLR,,0.00,WeatherDisplay:10.37,2013-05-03 20:59:00,
2013-05-03 17:04:00,68.2,54.2,30.15,ESE,118,2.3,2.3,61,0.00,CLR,,0.00,WeatherDisplay:10.37,2013-05-03 21:04:00,
2013-05-03 17:09:00,68.5,53.6,30.15,NNE,27,0.0,0.0,59,0.00,CLR,,0.00,WeatherDisplay:10.37,2013-05-03 21:09:00,
2013-05-03 17:14:00,68.4,52.6,30.15,NNE,26,4.0,4.0,57,0.00,CLR,,0.00,WeatherDisplay:10.37,2013-05-03 21:14:00,
2013-05-03 17:19:00,68.1,51.8,30.15,NNE,22,3.5,3.5,56,0.00,CLR,,0.00,WeatherDisplay:10.37,2013-05-03 21:19:00,
2013-05-03 17:24:00,67.9,51.6,30.15,North,11,1.1,1.1,56,0.00,CLR,,0.00,WeatherDisplay:10.37,2013-05-03 21:24:00,
2013-05-03 17:29:00,67.7,51.9,30.15,East,84,1.0,0.0,57,0.00,CLR,,0.00,WeatherDisplay:10.37,2013-05-03 21:29:00,
2013-05-03 17:34:00,67.5,52.2,30.15,NNE,33,2.3,2.3,58,0.00,CLR,,0.00,WeatherDisplay:10.37,2013-05-03 21:34:00,
2013-05-03 17:39:00,67.2,49.0,30.15,NNE,32,2.3,2.3,52,0.00,CLR,,0.00,WeatherDisplay:10.37,2013-05-03 21:39:00,
2013-05-03 17:44:00,67.0,48.8,30.15,NNE,19,1.0,1.0,52,0.00,CLR,,0.00,WeatherDisplay:10.37,2013-05-03 21:44:00,
2013-05-03 17:49:00,66.8,48.1,30.15,NE,36,3.5,3.5,51,0.00,CLR,,0.00,WeatherDisplay:10.37,2013-05-03 21:49:00,
2013-05-03 17:54:00,66.6,48.4,30.15,NNW,340,1.1,1.1,52,0.00,CLR,,0.00,WeatherDisplay:10.37,2013-05-03 21:54:00,
2013-05-03 17:56:00,66.6,47.9,30.15,NNE,20,2.3,2.3,51,0.00,CLR,,0.00,WeatherDisplay:10.37,2013-05-03 21:56:00,
2013-05-03 18:01:00,66.5,48.3,30.15,NE,34,0.0,0.0,52,0.00,CLR,,0.00,WeatherDisplay:10.37,2013-05-03 22:01:00,
2013-05-03 18:06:00,66.4,48.7,30.15,NNE,18,0.0,0.0,53,0.00,CLR,,0.00,WeatherDisplay:10.37,2013-05-03 22:06:00,
2013-05-03 18:11:00,66.4,48.2,30.15,NNE,18,0.0,0.0,52,0.00,CLR,,0.00,WeatherDisplay:10.37,2013-05-03 22:11:00,
2013-05-03 18:16:00,66.4,49.7,30.15,ENE,61,0.0,0.0,55,0.00,CLR,,0.00,WeatherDisplay:10.37,2013-05-03 22:16:00,
2013-05-03 18:21:00,66.1,49.0,30.15,ENE,61,0.0,0.0,54,0.00,CLR,,0.00,WeatherDisplay:10.37,2013-05-03 22:21:00,
2013-05-03 18:26:00,65.9,49.3,30.15,NE,38,0.0,0.0,55,0.00,CLR,,0.00,WeatherDisplay:10.37,2013-05-03 22:26:00,
2013-05-03 18:31:00,65.7,49.6,30.15,NNE,19,0.0,0.4,56,0.00,CLR,,0.00,WeatherDisplay:10.37,2013-05-03 22:31:00,
2013-05-03 18:36:00,65.5,49.4,30.15,North,8,2.3,0.0,56,0.00,CLR,,0.00,WeatherDisplay:10.37,2013-05-03 22:36:00,
2013-05-03 18:41:00,65.4,50.2,30.15,East,98,2.0,2.0,58,0.00,CLR,,0.00,WeatherDisplay:10.37,2013-05-03 22:41:00,
2013-05-03 18:46:00,65.1,50.4,30.15,NNE,18,3.5,3.5,59,0.00,CLR,,0.00,WeatherDisplay:10.37,2013-05-03 22:46:00,
2013-05-03 18:51:00,64.8,50.1,30.15,North,11,2.3,2.3,59,0.00,CLR,,0.00,WeatherDisplay:10.37,2013-05-03 22:51:00,
2013-05-03 18:56:00,64.5,49.8,30.15,NNE,26,3.5,3.5,59,0.00,CLR,,0.00,WeatherDisplay:10.37,2013-05-03 22:56:00,
2013-05-03 19:01:00,64.2,49.6,30.16,NE,38,5.8,5.8,59,0.00,CLR,,0.00,WeatherDisplay:10.37,2013-05-03 23:01:00,
2013-05-03 19:06:00,63.9,49.3,30.16,NE,49,2.3,2.3,59,0.00,CLR,,0.00,WeatherDisplay:10.37,2013-05-03 23:06:00,
2013-05-03 19:11:00,63.6,49.0,30.16,North,353,8.1,8.1,59,0.00,CLR,,0.00,WeatherDisplay:10.37,2013-05-03 23:11:00,
2013-05-03 19:16:00,63.3,48.7,30.16,North,4,3.5,3.5,59,0.00,CLR,,0.00,WeatherDisplay:10.37,2013-05-03 23:16:00,
2013-05-03 19:21:00,63.1,49.0,30.16,NNE,16,1.1,0.0,60,0.00,CLR,,0.00,WeatherDisplay:10.37,2013-05-03 23:21:00,
2013-05-03 19:22:00,63.1,49.0,30.16,NNE,16,1.1,1.1,60,0.00,CLR,,0.00,WeatherDisplay:10.37,2013-05-03 23:22:00,
2013-05-03 19:27:00,62.8,49.1,30.17,North,9,1.1,1.1,61,0.00,CLR,,0.00,WeatherDisplay:10.37,2013-05-03 23:27:00,
2013-05-03 19:32:00,62.6,48.5,30.17,North,11,4.6,4.6,60,0.00,CLR,,0.00,WeatherDisplay:10.37,2013-05-03 23:32:00,
2013-05-03 19:37:00,62.3,49.1,30.17,East,98,1.1,1.1,62,0.00,CLR,,0.00,WeatherDisplay:10.37,2013-05-03 23:37:00,
2013-05-03 19:42:00,61.9,48.3,30.17,NNW,339,4.6,4.6,61,0.00,CLR,,0.00,WeatherDisplay:10.37,2013-05-03 23:42:00,
2013-05-03 19:47:00,61.5,47.9,30.17,NE,39,2.3,2.3,61,0.00,CLR,,0.00,WeatherDisplay:10.37,2013-05-03 23:47:00,
2013-05-03 19:52:00,61.1,47.5,30.18,NNE,16,2.3,2.3,61,0.00,CLR,,0.00,WeatherDisplay:10.37,2013-05-03 23:52:00,
2013-05-03 19:57:00,60.7,47.2,30.18,WNW,294,3.5,3.5,61,0.00,CLR,,0.00,WeatherDisplay:10.37,2013-05-03 23:57:00,
2013-05-03 20:02:00,60.3,47.2,30.18,NNW,330,4.6,4.6,62,0.00,CLR,,0.00,WeatherDisplay:10.37,2013-05-04 00:02:00,
2013-05-03 20:07:00,60.0,47.4,30.18,North,4,2.3,2.3,63,0.00,CLR,,0.00,WeatherDisplay:10.37,2013-05-04 00:07:00,
2013-05-03 20:12:00,59.7,47.5,30.18,NNE,21,2.3,2.3,64,0.00,CLR,,0.00,WeatherDisplay:10.37,2013-05-04 00:12:00,
2013-05-03 20:17:00,59.4,47.2,30.18,NNE,22,2.3,2.3,64,0.00,CLR,,0.00,WeatherDisplay:10.37,2013-05-04 00:17:00,
2013-05-03 20:22:00,59.2,47.4,30.19,ENE,63,3.5,3.5,65,0.00,CLR,,0.00,WeatherDisplay:10.37,2013-05-04 00:22:00,
2013-05-03 20:27:00,58.9,47.6,30.19,NNE,12,3.5,3.5,66,0.00,CLR,,0.00,WeatherDisplay:10.37,2013-05-04 00:27:00,
2013-05-03 20:32:00,58.7,47.4,30.19,NNW,338,2.3,2.3,66,0.00,CLR,,0.00,WeatherDisplay:10.37,2013-05-04 00:32:00,
2013-05-03 20:37:00,58.5,47.2,30.19,NNW,335,3.5,3.5,66,0.00,CLR,,0.00,WeatherDisplay:10.37,2013-05-04 00:37:00,
2013-05-03 20:42:00,58.3,47.0,30.19,ENE,63,3.5,3.5,66,0.00,CLR,,0.00,WeatherDisplay:10.37,2013-05-04 00:42:00,
2013-05-03 20:47:00,58.2,47.3,30.19,NNE,23,2.3,2.3,67,0.00,CLR,,0.00,WeatherDisplay:10.37,2013-05-04 00:47:00,
2013-05-03 20:52:00,57.9,46.6,30.19,ESE,121,3.5,3.5,66,0.00,CLR,,0.00,WeatherDisplay:10.37,2013-05-04 00:52:00,
2013-05-03 20:57:00,57.6,45.9,30.19,NNE,19,3.5,3.5,65,0.00,CLR,,0.00,WeatherDisplay:10.37,2013-05-04 00:57:00,
2013-05-03 21:02:00,57.3,45.2,30.20,ENE,65,4.6,4.6,64,0.00,CLR,,0.00,WeatherDisplay:10.37,2013-05-04 01:02:00,
2013-05-03 21:07:00,57.1,45.4,30.20,NNE,16,3.5,3.5,65,0.00,CLR,,0.00,WeatherDisplay:10.37,2013-05-04 01:07:00,
2013-05-03 21:12:00,56.8,45.2,30.20,South,174,0.0,0.0,65,0.00,CLR,,0.00,WeatherDisplay:10.37,2013-05-04 01:12:00,
2013-05-03 21:17:00,56.6,44.6,30.20,ESE,117,5.8,5.8,64,0.00,CLR,,0.00,WeatherDisplay:10.37,2013-05-04 01:17:00,
2013-05-03 21:22:00,56.4,44.4,30.21,West,262,3.5,3.5,64,0.00,CLR,,0.00,WeatherDisplay:10.37,2013-05-04 01:22:00,
2013-05-03 21:27:00,56.1,44.5,30.21,SSE,165,2.3,2.3,65,0.00,CLR,,0.00,WeatherDisplay:10.37,2013-05-04 01:27:00,
2013-05-03 21:32:00,55.9,44.3,30.21,SSE,160,1.1,1.1,65,0.00,CLR,,0.00,WeatherDisplay:10.37,2013-05-04 01:32:00,
2013-05-03 21:37:00,55.7,44.5,30.21,ESE,108,2.3,2.3,66,0.00,CLR,,0.00,WeatherDisplay:10.37,2013-05-04 01:37:00,
2013-05-03 21:42:00,55.5,44.3,30.21,ENE,60,3.5,3.5,66,0.00,CLR,,0.00,WeatherDisplay:10.37,2013-05-04 01:42:00,
2013-05-03 21:47:00,55.4,44.2,30.21,NNE,29,2.3,2.3,66,0.00,CLR,,0.00,WeatherDisplay:10.37,2013-05-04 01:47:00,
2013-05-03 21:52:00,55.2,44.4,30.21,NNW,343,2.3,2.3,67,0.00,CLR,,0.00,WeatherDisplay:10.37,2013-05-04 01:52:00,
2013-05-03 21:57:00,55.1,44.3,30.21,ENE,74,2.3,2.3,67,0.00,CLR,,0.00,WeatherDisplay:10.37,2013-05-04 01:57:00,
2013-05-03 22:02:00,55.0,44.6,30.21,NE,43,0.0,0.0,68,0.00,CLR,,0.00,WeatherDisplay:10.37,2013-05-04 02:02:00,
2013-05-03 22:07:00,54.8,44.4,30.21,North,4,1.1,0.0,68,0.00,CLR,,0.00,WeatherDisplay:10.37,2013-05-04 02:07:00,
2013-05-03 22:12:00,54.7,44.7,30.21,North,352,2.3,2.3,69,0.00,CLR,,0.00,WeatherDisplay:10.37,2013-05-04 02:12:00,
2013-05-03 22:17:00,54.5,44.5,30.21,NNE,12,3.5,3.5,69,0.00,CLR,,0.00,WeatherDisplay:10.37,2013-05-04 02:17:00,
2013-05-03 22:22:00,54.4,44.4,30.21,South,174,1.1,1.1,69,0.00,CLR,,0.00,WeatherDisplay:10.37,2013-05-04 02:22:00,
2013-05-03 22:27:00,54.2,44.2,30.21,NW,321,2.3,2.3,69,0.00,CLR,,0.00,WeatherDisplay:10.37,2013-05-04 02:27:00,
2013-05-03 22:32:00,54.0,44.4,30.21,North,355,3.5,3.5,70,0.00,CLR,,0.00,WeatherDisplay:10.37,2013-05-04 02:32:00,
2013-05-03 22:37:00,53.8,44.2,30.21,East,99,1.1,0.0,70,0.00,CLR,,0.00,WeatherDisplay:10.37,2013-05-04 02:37:00,
2013-05-03 22:42:00,53.7,44.5,30.21,ENE,74,0.0,0.3,71,0.00,CLR,,0.00,WeatherDisplay:10.37,2013-05-04 02:42:00,
2013-05-03 22:47:00,53.5,44.3,30.21,South,187,2.3,2.3,71,0.00,CLR,,0.00,WeatherDisplay:10.37,2013-05-04 02:47:00,
2013-05-03 22:52:00,53.3,44.1,30.20,NNE,30,3.5,3.5,71,0.00,CLR,,0.00,WeatherDisplay:10.37,2013-05-04 02:52:00,
2013-05-03 22:57:00,53.2,44.0,30.20,NNW,342,3.5,3.5,71,0.00,CLR,,0.00,WeatherDisplay:10.37,2013-05-04 02:57:00,
2013-05-03 23:02:00,53.1,44.3,30.20,NNE,19,0.0,0.0,72,0.00,CLR,,0.00,WeatherDisplay:10.37,2013-05-04 03:02:00,
2013-05-03 23:07:00,52.9,44.1,30.20,East,96,1.1,1.1,72,0.00,CLR,,0.00,WeatherDisplay:10.37,2013-05-04 03:07:00,
2013-05-03 23:12:00,52.7,44.3,30.20,SE,136,2.3,2.3,73,0.00,CLR,,0.00,WeatherDisplay:10.37,2013-05-04 03:12:00,
2013-05-03 23:17:00,52.6,43.8,30.20,SSE,150,1.1,0.0,72,0.00,CLR,,0.00,WeatherDisplay:10.37,2013-05-04 03:17:00,
2013-05-03 23:22:00,52.5,44.1,30.20,SE,134,0.0,0.0,73,0.00,CLR,,0.00,WeatherDisplay:10.37,2013-05-04 03:22:00,
2013-05-03 23:27:00,52.3,44.3,30.20,SE,134,0.0,0.0,74,0.00,CLR,,0.00,WeatherDisplay:10.37,2013-05-04 03:27:00,
2013-05-03 23:32:00,52.1,44.4,30.20,NE,50,1.1,1.1,75,0.00,CLR,,0.00,WeatherDisplay:10.37,2013-05-04 03:32:00,
2013-05-03 23:37:00,52.0,44.7,30.20,SE,134,1.1,1.1,76,0.00,CLR,,0.00,WeatherDisplay:10.37,2013-05-04 03:37:00,
2013-05-03 23:42:00,51.8,44.8,30.20,NNE,27,1.1,1.1,77,0.00,CLR,,0.00,WeatherDisplay:10.37,2013-05-04 03:42:00,
2013-05-03 23:47:00,51.7,44.7,30.20,NE,36,1.1,1.1,77,0.00,CLR,,0.00,WeatherDisplay:10.37,2013-05-04 03:47:00,
2013-05-03 23:52:00,51.5,44.9,30.20,North,5,0.0,0.0,78,0.00,CLR,,0.00,WeatherDisplay:10.37,2013-05-04 03:52:00,
2013-05-03 23:57:00,51.4,44.8,30.20,East,82,1.1,1.1,78,0.00,CLR,,0.00,WeatherDisplay:10.37,2013-05-04 03:57:00,